FW8436 Weather Reports


time (UTC)temp
C
wind
direction
speed
KPH
gust
KPH
rain 1hr
cm
rain 24hr
cm
rain mn
cm
humidity
%
barometer
mb
20260503022032 5 360 6.4 14.5 0.00 0.00 0.00 65 1016.3
20260503021539 6 360 0.0 8.0 0.00 0.00 0.00 64 1016.2
20260503021033 6 360 0.0 8.0 0.00 0.00 0.00 61 1016.2
20260503020533 6 360 1.6 8.0 0.00 0.00 0.00 60 1016.2
20260503020039 6 360 0.0 17.7 0.00 0.00 0.00 60 1016.1
20260503015531 6 360 0.0 17.7 0.00 0.00 0.00 61 1016.1
20260503015029 6 360 6.4 17.7 0.00 0.00 0.00 60 1016.0
20260503014537 6 0 3.2 6.4 0.00 0.00 0.00 62 1016.0
20260503014029 6 360 1.6 4.8 0.00 0.00 0.00 62 1015.8
20260503013534 5 360 0.0 4.8 0.00 0.00 0.00 65 1015.7
20260503013038 5 0 0.0 9.7 0.00 0.00 0.00 67 1015.8
20260503012533 6 0 1.6 9.7 0.00 0.00 0.00 64 1015.7
20260503012031 6 360 0.0 8.0 0.00 0.00 0.00 63 1015.6
20260503011550 6 360 1.6 8.0 0.00 0.00 0.00 61 1015.4
20260503011034 7 360 1.6 9.7 0.00 0.00 0.00 59 1015.6
20260503010532 7 0 1.6 9.7 0.00 0.00 0.00 57 1015.5
20260503010043 7 360 1.6 6.4 0.00 0.00 0.00 58 1015.4
20260503005534 7 360 0.0 12.9 0.00 0.00 0.00 57 1015.4
20260503005033 7 0 0.0 14.5 0.00 0.00 0.00 54 1015.4
20260503004604 8 240 4.8 14.5 0.00 0.00 0.00 53 1015.4
20260503004032 7 98 1.6 6.4 0.00 0.00 0.00 54 1015.3
20260503003532 7 0 1.6 8.0 0.00 0.00 0.00 56 1015.3
20260503003038 8 325 1.6 14.5 0.00 0.00 0.00 52 1015.3
20260503002532 8 293 4.8 14.5 0.00 0.00 0.00 50 1015.2
20260503002030 8 38 3.2 12.9 0.00 0.00 0.00 53 1015.2
20260503001557 8 84 3.2 12.9 0.00 0.00 0.00 52 1015.2
20260503001030 8 360 0.0 8.0 0.00 0.00 0.00 54 1015.0
20260503000529 8 0 0.0 8.0 0.00 0.00 0.00 51 1015.0
20260503000039 9 360 3.2 8.0 0.00 0.00 0.00 50 1015.0
20260502235532 9 360 1.6 12.9 0.00 0.00 0.00 50 1014.8
20260502235033 9 0 1.6 12.9 0.00 0.00 0.00 49 1014.9
20260502234541 9 55 1.6 12.9 0.00 0.00 0.00 49 1014.7
20260502234036 10 325 4.8 24.1 0.00 0.00 0.00 48 1014.7
20260502233533 10 360 4.8 24.1 0.00 0.00 0.00 49 1014.7
20260502233045 10 315 6.4 24.1 0.00 0.00 0.00 48 1014.6
20260502232533 10 300 6.4 16.1 0.00 0.00 0.00 48 1014.7
20260502232034 10 0 0.0 19.3 0.00 0.00 0.00 50 1014.6
20260502231546 10 0 3.2 19.3 0.00 0.00 0.00 48 1014.5
20260502231033 10 53 4.8 17.7 0.00 0.00 0.00 48 1014.5
20260502230532 10 74 8.0 16.1 0.00 0.00 0.00 48 1014.5
20260502230040 10 71 1.6 4.8 0.00 0.00 0.00 49 1014.5
20260502225535 10 106 0.0 16.1 0.00 0.00 0.00 51 1014.4
20260502225033 10 0 4.8 16.1 0.00 0.00 0.00 48 1014.4
20260502224545 10 0 1.6 16.1 0.00 0.00 0.00 50 1014.2
20260502224030 10 56 4.8 16.1 0.00 0.00 0.00 49 1014.3
20260502223530 11 63 3.2 14.5 0.00 0.00 0.00 49 1014.2
20260502223047 11 67 1.6 14.5 0.00 0.00 0.00 48 1014.2
20260502222530 12 105 1.6 14.5 0.00 0.00 0.00 48 1014.2
20260502222029 11 311 3.2 14.5 0.00 0.00 0.00 48 1014.2
20260502221543 11 77 1.6 16.1 0.00 0.00 0.00 48 1014.1
20260502221033 11 88 4.8 16.1 0.00 0.00 0.00 48 1014.1
20260502220535 11 51 4.8 16.1 0.00 0.00 0.00 48 1014.2
20260502220046 11 85 1.6 16.1 0.00 0.00 0.00 48 1014.2
20260502215534 11 128 4.8 16.1 0.00 0.00 0.00 46 1014.1
20260502215032 11 271 4.8 12.9 0.00 0.00 0.00 46 1014.1
20260502214539 11 75 3.2 19.3 0.00 0.00 0.00 47 1014.0
20260502214032 12 309 4.8 19.3 0.00 0.00 0.00 44 1013.9
20260502213530 11 96 6.4 16.1 0.00 0.00 0.00 47 1013.9
20260502213047 11 318 4.8 17.7 0.00 0.00 0.00 43 1013.8
20260502212533 12 92 3.2 17.7 0.00 0.00 0.00 44 1013.8
20260502212033 12 78 8.0 17.7 0.00 0.00 0.00 45 1013.7
20260502211537 12 292 4.8 17.7 0.00 0.00 0.00 45 1013.8
20260502211032 12 67 4.8 16.1 0.00 0.00 0.00 44 1013.7
20260502210529 12 59 4.8 17.7 0.00 0.00 0.00 46 1013.8
20260502205533 12 240 9.7 19.3 0.00 0.00 0.00 41 1013.5
20260502205033 12 66 3.2 17.7 0.00 0.00 0.00 45 1013.5
20260502204552 11 59 4.8 17.7 0.00 0.00 0.00 45 1013.6
20260502204035 12 294 6.4 19.3 0.00 0.00 0.00 45 1013.5
20260502203533 12 336 6.4 19.3 0.00 0.00 0.00 44 1013.6
20260502203044 12 144 4.8 16.1 0.00 0.00 0.00 45 1013.5
20260502202533 11 250 8.0 16.1 0.00 0.00 0.00 49 1013.6
20260502202034 12 283 6.4 16.1 0.00 0.00 0.00 44 1013.6
20260502201549 12 322 3.2 22.5 0.00 0.00 0.00 46 1013.7
20260502201033 12 78 4.8 22.5 0.00 0.00 0.00 44 1013.8
20260502200535 12 85 6.4 19.3 0.00 0.00 0.00 44 1013.9
20260502200040 11 319 6.4 16.1 0.00 0.00 0.00 44 1013.8
20260502195532 12 82 3.2 14.5 0.00 0.00 0.00 46 1013.7
20260502195032 12 65 3.2 16.1 0.00 0.00 0.00 42 1013.8
20260502194537 12 56 4.8 17.7 0.00 0.00 0.00 45 1013.7
20260502194032 12 281 6.4 22.5 0.00 0.00 0.00 44 1013.8
20260502193530 12 71 9.7 27.4 0.00 0.00 0.00 43 1013.8
20260502193037 12 303 4.8 27.4 0.00 0.00 0.00 41 1013.7
20260502192533 13 78 11.3 20.9 0.00 0.00 0.00 44 1013.6
20260502192030 13 23 3.2 14.5 0.00 0.00 0.00 40 1013.6
20260502191556 12 312 6.4 14.5 0.00 0.00 0.00 42 1013.5
20260502191035 13 70 4.8 16.1 0.00 0.00 0.00 39 1013.4
20260502190534 15 46 6.4 16.1 0.00 0.00 0.00 38 1013.6
20260502190040 14 318 6.4 19.3 0.00 0.00 0.00 39 1013.6
20260502185534 15 88 4.8 20.9 0.00 0.00 0.00 38 1013.6
20260502185035 15 82 9.7 20.9 0.00 0.00 0.00 41 1013.6
20260502184548 13 121 3.2 17.7 0.00 0.00 0.00 42 1013.4
20260502184030 13 348 4.8 16.1 0.00 0.00 0.00 39 1013.4
20260502183535 14 38 6.4 16.1 0.00 0.00 0.00 41 1013.6
20260502183059 13 259 1.6 14.5 0.00 0.00 0.00 43 1013.7
20260502182533 14 56 6.4 24.1 0.00 0.00 0.00 41 1013.6
20260502182033 13 19 8.0 24.1 0.00 0.00 0.00 41 1013.7
20260502181543 13 70 4.8 19.3 0.00 0.00 0.00 39 1013.7
20260502181029 15 46 6.4 19.3 0.00 0.00 0.00 37 1013.6
20260502180529 15 83 6.4 19.3 0.00 0.00 0.00 37 1013.7
20260502164033 12 59 6.4 22.5 0.00 0.00 0.00 45 1014.5
20260502163533 13 56 3.2 25.7 0.00 0.00 0.00 43 1014.5
20260502163055 13 92 4.8 25.7 0.00 0.00 0.00 45 1014.6
20260502162529 13 85 11.3 25.7 0.00 0.00 0.00 43 1014.6
20260502162035 13 103 6.4 22.5 0.00 0.00 0.00 46 1014.7
20260502161549 12 45 3.2 16.1 0.00 0.00 0.00 47 1015.0
20260502161034 12 307 8.0 16.1 0.00 0.00 0.00 45 1015.0
20260502160535 11 255 1.6 8.0 0.00 0.00 0.00 49 1015.0
20260502152037 11 76 6.4 19.3 0.00 0.00 0.00 52 1015.3
20260502151545 10 78 3.2 12.9 0.00 0.00 0.00 53 1015.4
20260502151030 10 191 3.2 8.0 0.00 0.00 0.00 53 1015.5
20260502150529 9 180 1.6 14.5 0.00 0.00 0.00 57 1015.5
20260502130536 7 303 1.6 8.0 0.00 0.00 0.00 61 1015.7
20260502123533 6 42 1.6 4.8 0.00 0.00 0.00 63 1015.5
20260502123039 6 27 1.6 4.8 0.00 0.00 0.00 63 1015.5
20260502122532 6 42 0.0 6.4 0.00 0.00 0.00 64 1015.6
20260502122034 6 42 0.0 8.0 0.00 0.00 0.00 64 1015.6
20260502121546 6 51 3.2 8.0 0.00 0.00 0.00 63 1015.6
20260502121030 6 218 3.2 6.4 0.00 0.00 0.00 66 1015.8
20260502120529 6 304 1.6 6.4 0.00 0.00 0.00 66 1015.8
20260502115529 6 49 0.0 8.0 0.00 0.00 0.00 65 1015.7
20260502115029 6 39 3.2 8.0 0.00 0.00 0.00 65 1015.7
20260502114545 6 9 0.0 9.7 0.00 0.00 0.00 66 1015.7
20260502114034 6 53 4.8 9.7 0.00 0.00 0.00 66 1015.6
20260502113530 6 0 0.0 12.9 0.00 0.00 0.00 67 1015.5
20260502113039 6 317 0.0 12.9 0.00 0.00 0.00 66 1015.5
20260502112532 5 337 4.8 12.9 0.00 0.00 0.00 66 1015.4
20260502112033 5 269 3.2 8.0 0.00 0.00 0.00 67 1015.3
20260502111539 5 21 0.0 8.0 0.00 0.00 0.00 67 1015.3
20260502111033 5 360 1.6 8.0 0.00 0.00 0.00 67 1015.3
20260502110533 5 360 1.6 6.4 0.00 0.00 0.00 67 1015.2
20260502110055 5 360 0.0 9.7 0.00 0.00 0.00 67 1015.2
20260502105533 5 360 3.2 9.7 0.00 0.00 0.00 68 1015.2
20260502105029 5 360 1.6 8.0 0.00 0.00 0.00 71 1015.2
20260502104537 4 360 1.6 8.0 0.00 0.00 0.00 76 1015.2
20260502104029 3 0 1.6 8.0 0.00 0.00 0.00 80 1015.2
20260502103529 3 360 1.6 3.2 0.00 0.00 0.00 82 1015.2
20260502103046 3 360 0.0 4.8 0.00 0.00 0.00 82 1015.2
20260502102529 3 0 1.6 4.8 0.00 0.00 0.00 81 1015.2
20260502102032 3 360 1.6 4.8 0.00 0.00 0.00 83 1015.3
20260502101551 3 360 0.0 4.8 0.00 0.00 0.00 82 1015.4
20260502101035 3 0 1.6 6.4 0.00 0.00 0.00 82 1015.4
20260502100533 3 0 0.0 6.4 0.00 0.00 0.00 82 1015.4
20260502091029 7 52 0.0 4.8 0.00 0.00 0.00 63 1015.5
20260502090530 7 49 1.6 4.8 0.00 0.00 0.00 61 1015.5
20260502071033 8 59 1.6 11.3 0.00 0.00 0.00 70 1014.9
20260502070533 8 83 1.6 14.5 0.00 0.00 0.00 71 1014.9
20260502070039 8 72 4.8 14.5 0.00 0.00 0.00 71 1015.0
20260502065534 8 62 0.0 8.0 0.00 0.00 0.00 72 1015.0
20260502065032 8 323 3.2 8.0 0.00 0.00 0.00 71 1014.9
20260502064537 9 74 0.0 12.9 0.00 0.00 0.00 72 1015.1
20260502064029 9 74 0.0 12.9 0.00 0.00 0.00 72 1015.1
20260502063532 9 75 4.8 12.9 0.00 0.00 0.00 71 1015.1
20260502063038 9 273 1.6 9.7 0.00 0.00 0.00 71 1015.1
20260502062530 9 77 3.2 9.7 0.00 0.00 0.00 71 1015.1
20260502062030 9 0 0.0 6.4 0.00 0.00 0.00 71 1015.2
20260502061540 9 0 3.2 6.4 0.00 0.00 0.00 71 1015.2
20260502061032 9 112 1.6 11.3 0.00 0.00 0.00 71 1015.3
20260502060533 9 104 3.2 11.3 0.00 0.00 0.00 71 1015.3
20260502060038 9 0 0.0 4.8 0.00 0.00 0.00 71 1015.3
20260502055530 9 74 1.6 4.8 0.00 0.00 0.00 70 1015.3
20260502055033 9 105 0.0 4.8 0.00 0.00 0.00 71 1015.3
20260502054545 9 80 0.0 6.4 0.00 0.00 0.00 70 1015.4
20260502054032 9 33 1.6 9.7 0.00 0.00 0.00 69 1015.5
20260502053530 9 317 3.2 11.3 0.00 0.00 0.00 69 1015.2
20260502053040 9 0 4.8 11.3 0.00 0.00 0.00 69 1015.2
20260502052534 9 360 1.6 8.0 0.00 0.00 0.00 69 1015.1
20260502052031 9 78 1.6 17.7 0.00 0.00 0.00 69 1015.0
20260502051544 9 360 4.8 17.7 0.00 0.00 0.00 68 1015.0
20260502051034 9 94 0.0 4.8 0.00 0.00 0.00 68 1015.2
20260502050530 9 55 0.0 4.8 0.00 0.00 0.00 68 1015.1
20260502050040 10 0 0.0 6.4 0.00 0.00 0.00 67 1015.1
20260502045530 10 0 1.6 14.5 0.00 0.00 0.00 68 1015.1
20260502045036 10 0 1.6 14.5 0.00 0.00 0.00 67 1015.1
20260502044545 10 360 4.8 14.5 0.00 0.00 0.00 67 1015.0
20260502044031 10 360 1.6 9.7 0.00 0.00 0.00 69 1015.1
20260502043529 10 0 1.6 8.0 0.00 0.00 0.00 68 1015.1
20260502043037 10 0 0.0 6.4 0.00 0.00 0.00 69 1015.1
20260502042534 10 0 0.0 6.4 0.00 0.00 0.00 69 1015.2
20260502042033 10 360 1.6 6.4 0.00 0.00 0.00 71 1015.2
20260502041602 10 0 3.2 6.4 0.00 0.00 0.00 71 1015.0
20260502041032 10 360 1.6 4.8 0.00 0.00 0.00 72 1015.0
20260502040534 10 0 0.0 3.2 0.00 0.00 0.00 71 1015.0
20260502040043 10 0 0.0 3.2 0.00 0.00 0.00 71 1015.0
20260502035534 10 0 0.0 6.4 0.00 0.00 0.00 69 1014.9
20260502035033 10 0 0.0 6.4 0.00 0.00 0.00 69 1014.9
20260502034534 10 305 3.2 11.3 0.00 0.00 0.00 68 1015.0
20260502034030 10 296 1.6 11.3 0.00 0.00 0.00 68 1015.0
20260502033529 10 312 1.6 11.3 0.00 0.00 0.00 67 1015.0
20260502033049 11 0 0.0 11.3 0.00 0.00 0.00 67 1015.0
20260502032529 11 319 3.2 11.3 0.00 0.00 0.00 67 1015.0
20260502032033 11 331 3.2 11.3 0.00 0.00 0.00 67 1015.1
20260502031546 11 316 0.0 8.0 0.00 0.00 0.00 69 1015.1
20260502031029 11 13 1.6 6.4 0.00 0.00 0.00 69 1015.2
20260502030530 11 40 0.0 14.5 0.00 0.00 0.00 69 1015.0
20260502030038 11 0 0.0 14.5 0.00 0.00 0.00 69 1015.0
20260502025533 11 251 1.6 12.9 0.00 0.00 0.00 69 1015.0
20260502025033 11 0 0.0 6.4 0.00 0.00 0.00 68 1015.0
20260502024541 11 309 0.0 6.4 0.00 0.00 0.00 68 1015.0
20260502024032 11 0 1.6 6.4 0.00 0.00 0.00 68 1014.9
20260502023533 11 69 0.0 9.7 0.00 0.00 0.00 68 1014.7
20260502023042 11 298 1.6 11.3 0.00 0.00 0.00 68 1014.8
20260502022535 11 316 1.6 16.1 0.00 0.00 0.00 67 1014.7